Tracking 29892 objects as of 21-Nov-2024
HD Live streaming from Space Station
objects crossing your sky now

NIMBUS 3


NIMBUS 3 is no longer on orbit


NORAD ID: 3890
Int'l Code: 1969-037A
Perigee: N/A
Apogee: N/A
Inclination: N/A
Period: N/A
Semi major axis: N/A
RCS: N/A
Launch date: April 14, 1969
Source: United States (US)
Launch site: AIR FORCE WESTERN TEST RANGE (AFWTR)
Decay date: 1972-01-22
Your satellite tracking list
Your tracking list is empty




NASA's NSSDC Master Catalog

Two Line Element Set (TLE):
1  3890U 69037A   24326.18815228  .00000008  00000-0  90258-4 0  9993
2  3890  99.7773 215.6957 0038783 284.0217 241.8194 13.42629189724346
Source of the keplerian elements: AFSPC